User: anonymous   Login
Location: Saint Peter Port
(49.4500°N, 2.5330°W)
Time: 06:25:59
(UTC+01:00)
Language:

Cosmos 2242 Rocket - Orbit

View from above orbital plane
View from above orbital plane
View from above satellite
View from above satellite

Ground track
Ground track

The orbit data is extracted from the following two-line orbital elements,

1 22627U 93024B   15239.34415560  .00000159  00000-0  18859-4 0  9995
2 22627 082.5251 352.8114 0022804 331.3180 080.7502 14.77933543204681
Epoch (UTC): 27 August 2015 08:15:35
Eccentricity: 0.0022804
inclination: 82.5251°
perigee height: 620 km
apogee height: 652 km
right ascension of ascending node: 352.8114°
argument of perigee: 331.3180°
revolutions per day: 14.77933543
mean anomaly at epoch: 80.7502°
orbit number at epoch: 20468

The dashed part of the orbit path shows where the satellite is in the earth's shadow,  

DLR